Mora, MN

4:15 PM CDT on April 20, 2018 (GMT -0500)
Mora Municipal

Weather History for KJMR - September, 2013

Change the Weather History Date:

Monday, September 2, 2013

  Actual Average Record
Temperature  
Mean Temperature 54 °F -  
Max Temperature 64 °F 76 °F 96 °F (1961)
Min Temperature 44 °F 49 °F 31 °F (1984)
Degree Days  
Heating Degree Days 11    
Growing Degree Days 4 (Base 50)    
Moisture  
Dew Point 47 °F    
Average Humidity 73    
Maximum Humidity 100    
Minimum Humidity 52    
Precipitation  
Precipitation 0.00 in - - ()
Sea Level Pressure  
Sea Level Pressure 30.08 in    
Wind  
Wind Speed 1 mph (North)    
Max Wind Speed 10 mph    
Max Gust Speed -    
Visibility 9 miles    
Events Rain    
Averages and records for this station are not official NWS values.
T = Trace of Precipitation, MM = Missing Value Source: NWS Daily Summary

Daily Weather History Graph

Daily Weather History Graph

Search for Another Location

Airport or City:

Astronomy

Sep. 02, 2013 Rise Set
Actual Time 6:35 AM CDT 7:48 PM CDT
Civil Twilight 6:04 AM CDT 8:19 PM CDT
Nautical Twilight 5:27 AM CDT 8:56 PM CDT
Astronomical Twilight 4:48 AM CDT 9:35 PM CDT
Moon 3:47 AM CDT (9/2) 6:06 PM CDT (9/2)
Length of Visible Light 14h 14m
Length of Day
13h 13m
Waning Crescent, 8% of the Moon is Illuminated
Sep 2
Waning Crescent
Sep 5
New
Sep 12
First Quarter
Sep 19
Full
Sep 26
Last Quarter

Hourly Weather History & Observations

Time (CDT) Temp. Dew Point Humidity Pressure Visibility Wind Dir Wind Speed Gust Speed Precip Events Conditions
12:15 AM 53.6 °F 46.4 °F 77% 30.02 in 10.0 mi Calm Calm - N/A   Mostly Cloudy
12:34 AM 55.4 °F 46.4 °F 72% 30.02 in 10.0 mi Calm Calm - N/A   Overcast
12:55 AM 55.4 °F 46.4 °F 72% 30.02 in 10.0 mi North 3.5 mph - N/A   Overcast
1:14 AM 55.4 °F 48.2 °F 77% 30.02 in 10.0 mi Calm Calm - N/A   Overcast
1:34 AM 55.4 °F 48.2 °F 77% 30.03 in 10.0 mi Calm Calm - N/A   Overcast
1:55 AM 55.4 °F 48.2 °F 77% 30.03 in 10.0 mi Calm Calm - N/A   Overcast
2:14 AM 55.4 °F 48.2 °F 77% 30.03 in 10.0 mi Calm Calm - N/A   Overcast
2:34 AM 55.4 °F 48.2 °F 77% 30.03 in 10.0 mi Calm Calm - N/A   Mostly Cloudy
2:54 AM 53.6 °F 48.2 °F 82% 30.03 in 10.0 mi NE 4.6 mph - N/A   Overcast
3:14 AM 53.6 °F 48.2 °F 82% 30.04 in 10.0 mi Calm Calm - N/A   Overcast
3:35 AM 53.6 °F 46.4 °F 77% 30.04 in 10.0 mi Calm Calm - N/A   Overcast
3:54 AM 53.6 °F 46.4 °F 77% 30.05 in 10.0 mi North 3.5 mph - N/A   Overcast
4:15 AM 53.6 °F 46.4 °F 77% 30.05 in 10.0 mi Calm Calm - N/A   Overcast
4:34 AM 53.6 °F 44.6 °F 72% 30.05 in 10.0 mi Calm Calm - N/A   Overcast
4:55 AM 53.6 °F 44.6 °F 72% 30.06 in 10.0 mi Calm Calm - N/A   Overcast
5:14 AM 53.6 °F 44.6 °F 72% 30.06 in 10.0 mi Calm Calm - N/A   Overcast
5:34 AM 53.6 °F 46.4 °F 77% 30.06 in 10.0 mi Calm Calm - N/A   Overcast
5:54 AM 53.6 °F 48.2 °F 82% 30.07 in 10.0 mi Calm Calm - N/A   Overcast
6:14 AM 53.6 °F 48.2 °F 82% 30.07 in 10.0 mi Calm Calm - N/A   Overcast
6:35 AM 53.6 °F 48.2 °F 82% 30.08 in 5.0 mi Calm Calm - N/A Rain Rain
6:54 AM 51.8 °F 48.2 °F 88% 30.09 in 5.0 mi Calm Calm - N/A   Light Drizzle
7:14 AM 51.8 °F 50.0 °F 94% 30.09 in 10.0 mi Calm Calm - N/A   Overcast
7:35 AM 50.0 °F 46.4 °F 87% 30.10 in 10.0 mi Calm Calm - N/A   Mostly Cloudy
7:54 AM 51.8 °F 50.0 °F 94% 30.10 in 10.0 mi Calm Calm - N/A   Overcast
8:15 AM 51.8 °F 46.4 °F 82% 30.11 in 7.0 mi Calm Calm - N/A   Overcast
8:34 AM 51.8 °F 48.2 °F 88% 30.11 in 7.0 mi Calm Calm - N/A   Overcast
8:54 AM 53.6 °F 50.0 °F 88% 30.11 in 7.0 mi Calm Calm - N/A   Overcast
9:14 AM 53.6 °F 48.2 °F 82% 30.11 in 10.0 mi North 4.6 mph - N/A   Overcast
9:34 AM 53.6 °F 46.4 °F 77% 30.12 in 10.0 mi Calm Calm - N/A   Overcast
9:55 AM 53.6 °F 48.2 °F 82% 30.12 in 4.0 mi Calm Calm - N/A   Haze
10:14 AM 55.4 °F 48.2 °F 77% 30.13 in 10.0 mi North 6.9 mph - N/A   Overcast
10:34 AM 55.4 °F 46.4 °F 72% 30.13 in 10.0 mi NNW 10.4 mph - N/A   Overcast
10:54 AM 55.4 °F 44.6 °F 67% 30.13 in 10.0 mi North 3.5 mph - N/A   Overcast
11:14 AM 55.4 °F 46.4 °F 72% 30.13 in 10.0 mi Calm Calm - N/A   Overcast
11:34 AM 57.2 °F 46.4 °F 67% 30.12 in 10.0 mi NNW 6.9 mph - N/A   Overcast
11:54 AM 57.2 °F 46.4 °F 67% 30.13 in 10.0 mi NNW 10.4 mph - N/A   Overcast
12:15 PM 59.0 °F 44.6 °F 59% 30.13 in 10.0 mi NNW 8.1 mph - N/A   Overcast
12:34 PM 59.0 °F 44.6 °F 59% 30.12 in 10.0 mi NW 9.2 mph - N/A   Overcast
12:54 PM 59.0 °F 46.4 °F 63% 30.12 in 10.0 mi NNW 8.1 mph - N/A   Overcast
1:14 PM 60.8 °F 46.4 °F 59% 30.11 in 10.0 mi Calm Calm - N/A   Overcast
1:34 PM 60.8 °F 48.2 °F 63% 30.10 in 10.0 mi WNW 4.6 mph - N/A   Overcast
1:54 PM 60.8 °F 46.4 °F 59% 30.10 in 10.0 mi North 4.6 mph - N/A   Mostly Cloudy
2:14 PM 62.6 °F 48.2 °F 59% 30.10 in 10.0 mi Calm Calm - N/A   Scattered Clouds
2:34 PM 64.4 °F 48.2 °F 56% 30.09 in 10.0 mi North 3.5 mph - N/A   Scattered Clouds
2:54 PM 64.4 °F 48.2 °F 56% 30.09 in 10.0 mi North 4.6 mph - N/A   Clear
3:14 PM 64.4 °F 46.4 °F 52% 30.09 in 10.0 mi Calm Calm - N/A   Scattered Clouds
3:34 PM 64.4 °F 46.4 °F 52% 30.08 in 10.0 mi NNW 4.6 mph - N/A   Scattered Clouds
3:54 PM 64.4 °F 46.4 °F 52% 30.07 in 10.0 mi Calm Calm - N/A   Scattered Clouds
4:15 PM 64.4 °F 46.4 °F 52% 30.07 in 10.0 mi North 4.6 mph - N/A   Clear
4:34 PM 64.4 °F 46.4 °F 52% 30.07 in 10.0 mi Calm Calm - N/A   Clear
4:54 PM 64.4 °F 46.4 °F 52% 30.06 in 10.0 mi Calm Calm - N/A   Clear
5:14 PM 64.4 °F 46.4 °F 52% 30.06 in 10.0 mi NW 3.5 mph - N/A   Clear
5:34 PM 64.4 °F 46.4 °F 52% 30.06 in 10.0 mi Calm Calm - N/A   Clear
5:54 PM 64.4 °F 46.4 °F 52% 30.06 in 10.0 mi NE 3.5 mph - N/A   Clear
6:14 PM 64.4 °F 46.4 °F 52% 30.07 in 10.0 mi NNW 3.5 mph - N/A   Clear
6:34 PM 64.4 °F 48.2 °F 56% 30.07 in 10.0 mi Calm Calm - N/A   Clear
6:54 PM 64.4 °F 48.2 °F 56% 30.07 in 10.0 mi Calm Calm - N/A   Clear
7:14 PM 64.4 °F 48.2 °F 56% 30.07 in 10.0 mi Calm Calm - N/A   Clear
7:34 PM 60.8 °F 46.4 °F 59% 30.06 in 10.0 mi Calm Calm - N/A   Clear
7:54 PM 57.2 °F 46.4 °F 67% 30.06 in 10.0 mi Calm Calm - N/A   Clear
8:14 PM 55.4 °F 46.4 °F 72% 30.06 in 10.0 mi Calm Calm - N/A   Clear
8:34 PM 53.6 °F 46.4 °F 77% 30.06 in 10.0 mi Calm Calm - N/A   Clear
8:54 PM 51.8 °F 46.4 °F 82% 30.06 in 10.0 mi Calm Calm - N/A   Clear
9:14 PM 50.0 °F 46.4 °F 87% 30.07 in 10.0 mi Calm Calm - N/A   Clear
9:35 PM 50.0 °F 46.4 °F 87% 30.07 in 10.0 mi Calm Calm - N/A   Clear
9:54 PM 50.0 °F 46.4 °F 87% 30.07 in 10.0 mi Calm Calm - N/A   Clear
10:15 PM 48.2 °F 44.6 °F 87% 30.07 in 7.0 mi Calm Calm - N/A   Clear
10:34 PM 48.2 °F 46.4 °F 93% 30.07 in 10.0 mi Calm Calm - N/A   Clear
10:54 PM 46.4 °F 44.6 °F 93% 30.07 in 10.0 mi Calm Calm - N/A   Clear
11:15 PM 46.4 °F 44.6 °F 93% 30.07 in 1.2 mi Calm Calm - N/A   Mist
11:34 PM 44.6 °F 44.6 °F 100% 30.07 in 4.0 mi Calm Calm - N/A   Clear
11:55 PM 44.6 °F 44.6 °F 100% 30.07 in 10.0 mi Calm Calm - N/A   Clear